Regional Weather Roundup
Issued by NWS

Home | Current Version | Previous Version | Text Only | Print | Product List | Glossary Off
Versions: 1 2 3 4 5 6 7 8 9 10 11 12 13 14 15 16 17 18 19 20 21 22 23 24 25 26 27 28 29 30 31 32 33 34 35 36 37 38 39 40 41 42 43 44 45 46 47 48 49 50

000
ASUS43 KTOP 220959
RWRKS

WEATHER ROUNDUP FOR KANSAS
NATIONAL WEATHER SERVICE GOODLAND KS
500 AM CDT SAT JUL 22 2017

NOTE:  "FAIR" INDICATES FEW OR NO CLOUDS BELOW 12,000 FEET WITH NO
SIGNIFICANT WEATHER AND/OR OBSTRUCTIONS TO VISIBILITY.

KSZ001>006-013>018-027>032-041>047-221100-
NORTHWEST KANSAS

CITY           SKY/WX    TMP DP  RH WIND       PRES   REMARKS
GOODLAND       PTCLDY    70  57  63 W10       29.98S
HAYS           CLEAR     75  57  53 SW10      29.87R
HILL CITY      CLEAR     71  59  65 CALM      29.86R
RUSSELL        PTCLDY    78  59  51 SW14      29.84F
$$

KSZ061>065-074>080-084>089-221100-
SOUTHWEST KANSAS

CITY           SKY/WX    TMP DP  RH WIND       PRES   REMARKS
DODGE CITY     CLEAR     75  56  51 W7        29.95S
ELKHART          N/A     71  48  43 N5          N/A
GARDEN CITY    CLEAR     65  58  78 SW6       29.96S
LIBERAL        CLEAR     72  57  59 W6        29.97F
$$

KSZ066>073-081>083-090>101-221100-
SOUTHEAST KANSAS

CITY           SKY/WX    TMP DP  RH WIND       PRES   REMARKS
CHANUTE        CLEAR     80  71  74 S9        29.89R
COFFEYVILLE    CLEAR     79  72  79 S8        29.89R
HUTCHINSON     CLEAR     81  65  58 SW10      29.86S
MEDICINE LODGE   N/A     79  65  62 SE6       29.89S
NEWTON         CLEAR     81  68  64 SW14      29.88R
PARSONS        CLEAR     79  71  76 S6        29.90R
WICHITA INTL   CLEAR     80  69  69 S10       29.87S
WICHITA JABRA  CLEAR     82  69  64 S14       29.87S
WINFIELD       CLEAR     81  69  67 S7        29.90R
$$

KSZ007>012-019>026-033>040-048>060-102>105-221100-
NORTHEAST KANSAS

CITY           SKY/WX    TMP DP  RH WIND       PRES   REMARKS
CONCORDIA      CLEAR     81  62  52 SW9       29.81R
EMPORIA        CLEAR     81  70  69 S10       29.85S
LAWRENCE       CLEAR     84  72  67 S12       29.82S
MANHATTAN      CLEAR     84  67  56 SW12      29.80S
OLATHE IND     CLEAR     82  72  71 S16       29.85S
OLATHE EXE     CLEAR     81  73  76 SW9G20    29.85S
SALINA         CLEAR     84  63  49 SW14      29.82S
TOPEKA BILLARD CLEAR     83  73  72 SW8       29.81R
TOPEKA FORBES  CLEAR     83  73  72 S12       29.82R
$$




USA.gov is the U.S. government's official web portal to all federal, state and local government web resources and services.